This is the latest recevied weather packets stored in our database for station/object N0OQA. If no packets are shown the sender has not sent any weather packets the latest 10 day(s).
| Time | Temp. | Humidity | Pressure | Rain* | Wind** | Luminosity | Snow |
|---|---|---|---|---|---|---|---|
| 1787967934 | 21.11° C | 74% | 1018.4 hPa | 0 mm | - | - | - |
| 1787967333 | 21.11° C | 74% | 1018.4 hPa | 0 mm | - | - | - |
| 1787967033 | 21.67° C | 74% | 1018.5 hPa | 0 mm | - | - | - |
| 1787966732 | 21.67° C | 74% | 1018.5 hPa | 0 mm | - | - | - |
| 1787966432 | 21.67° C | 74% | 1018.5 hPa | 0 mm | - | - | - |
| 1787966132 | 21.67° C | 73% | 1018.6 hPa | 0 mm | - | - | - |
| 1787965832 | 21.67° C | 73% | 1018.5 hPa | 0 mm | - | - | - |
| 1787965531 | 21.67° C | 72% | 1018.6 hPa | 0 mm | - | - | - |
| 1787965231 | 22.22° C | 71% | 1018.6 hPa | 0 mm | - | - | - |
| 1787964931 | 22.22° C | 71% | 1018.8 hPa | 0 mm | - | - | - |
| 1787964631 | 22.78° C | 71% | 1018.8 hPa | 0 mm | - | - | - |
| 1787963729 | 23.33° C | 69% | 1018.7 hPa | 0 mm | - | - | - |
| 1787963128 | 23.33° C | 69% | 1018.5 hPa | 0 mm | - | - | - |
| 1787962828 | 23.33° C | 69% | 1018.7 hPa | 0 mm | - | - | - |
| 1787962528 | 23.33° C | 68% | 1018.7 hPa | 0 mm | - | - | - |
| 1787961927 | 23.33° C | 67% | 1018.8 hPa | 0 mm | - | - | - |
| 1787961627 | 23.33° C | 67% | 1018.9 hPa | 0 mm | - | - | - |
| 1787961025 | 23.33° C | 66% | 1019.1 hPa | 0 mm | - | - | - |
| 1787960725 | 23.89° C | 65% | 1019.2 hPa | 0 mm | - | - | - |
| 1787960124 | 23.89° C | 64% | 1019.3 hPa | 0 mm | - | - | - |
| 1787958923 | 24.44° C | 60% | 1019.3 hPa | 0 mm | - | - | - |
| 1787958622 | 25° C | 60% | 1019.3 hPa | 0 mm | - | - | - |
| 1787958022 | 25.56° C | 59% | 1019.3 hPa | 0 mm | - | - | - |
| 1787957121 | 25.56° C | 56% | 1019.4 hPa | 0 mm | - | - | - |
| 1787956821 | 25.56° C | 57% | 1019.3 hPa | 0 mm | - | - | - |
* Rain since midnight (hover to see other rain measurements)
** Current wind speed in m/s (hover to see current wind gust speed)